Orbital Elements at Epoch 2459200.5 (2020-Dec-17.0) TDB
Reference: JPL 13 (heliocentric ecliptic J2000)
Element | Value | Uncertainty (1-sigma) | Units |
e | .1713245702107648 | 4.6055e-08 | |
a | 2.28495774840685 | 9.5123e-09 | au |
q | 1.89348834421129 | 1.0619e-07 | au |
i | 4.79515323331196 | 4.7407e-06 | deg |
node | 89.74264282285085 | 6.121e-05 | deg |
peri | 260.6030695123042 | 6.2561e-05 | deg |
M | 83.99236603722174 | 1.3562e-05 | deg |
tp | 2458906.157481013993 (2020-Feb-26.65748101) | 4.708e-05 | TDB |
period | 1261.58259177988 3.45 | 7.878e-06 2.157e-08 | d yr |
n | .2853558715423464 | 1.7819e-09 | deg/d |
Q | 2.676427152602411 | 1.1142e-08 | au |
|
| | Orbit Determination Parameters
Additional Information
|